Weather Roundup
Issued by NWS Corpus Christi, TX

Home | Current Version | Previous Version | Text Only | Print | Product List | Glossary Off
Versions: 1 2 3 4 5 6 7 8 9 10 11 12 13 14 15 16 17 18 19 20 21 22 23 24 25 26 27 28 29 30 31 32 33 34 35 36 37 38 39 40 41 42 43 44 45 46 47 48 49 50

000
ASUS44 KCRP 250610
HRRCRP

SOUTH TEXAS REGIONAL WEATHER ROUNDUP
NATIONAL WEATHER SERVICE CORPUS CHRISTI TX
100 AM CDT SAT JUN 25 2016


TXZ229>244-250700-
...CORPUS CHRISTI AREA OBSERVATIONS...

CITY           SKY/WX    TMP DP  RH WIND       PRES   REMARKS
CORPUS CHRISTI CLOUDY    82  77  84 SE8       29.98F HX  90
NAS CORPUS CHR NOT AVBL
ROCKPORT       CLOUDY    84  75  74 SE15G23   29.98F HX  92
KINGSVILLE NAS CLOUDY    81  80  97 SE12      29.98S HX  91
ALICE          CLOUDY    78  75  90 S6        29.98F
FALFURRIAS     MOCLDY    80  75  83 SE6       29.98S
$$

...VICTORIA AREA OBSERVATIONS...

CITY           SKY/WX    TMP DP  RH WIND       PRES   REMARKS
VICTORIA       PTCLDY    79  76  90 SE8       30.00F
BEEVILLE       FAIR      79  78  98 S6        30.00R
PLEASANTON     CLOUDY    79  71  76 SE3       30.01R
SAN ANTONIO    MOCLDY    79  73  82 SE10      30.02F
$$

...LAREDO AREA OBSERVATIONS...

CITY           SKY/WX    TMP DP  RH WIND       PRES   REMARKS
LAREDO         PTCLDY    82  72  71 SE14G23   29.97S
COTULLA        PTCLDY    82  70  66 S14       29.97S
DEL RIO        PTCLDY    84  70  62 SE15G24   29.94R
MCALLEN        PTCLDY    82  75  79 SE10      29.98F
HEBBRONVILLE   CLEAR     79  73  84 SE8       30.01S
$$

...OTHER TEXAS OBSERVATIONS...

CITY           SKY/WX    TMP DP  RH WIND       PRES   REMARKS
BROWNSVILLE    MOCLDY    83  76  79 SE12      29.99S HX  91
HOUSTON        PTCLDY    80  75  84 S3        30.03S
COL. STATION   CLEAR     79  74  84 S7        30.02S
AUSTIN         PTCLDY    76  72  87 CALM      30.02S
WACO           CLEAR     82  71  69 S16       30.01R
FORT WORTH     PTCLDY    84  68  58 S12       29.99S
WICHITA FALLS  CLEAR     78  67  68 S13       29.97S
LUBBOCK        CLEAR     78  58  49 S16       30.04S
EL PASO        CLOUDY    78  57  48 W12       30.08R
$$

...MARINE OBSERVATIONS...

STATION/POSITION TIME  SKY/WX   TEMP    WIND        PRES    VSBY  WAVE   SWELL
                                AIR SEA DIR/SP/G                  HT/PER HT/PER
                 (UTC)          (F)     (DEG/KT/KT) (MB)    (MI)  (FT/S) (FT/S)
PORT ARANSAS     0600            84 85  140/ 19/ 21 1015.9F
BUOY 90 E PORT A 0450            85 86  140/ 16/ 17 1016.4          3/ 5
BUOY 45 SE BAFFI 0550            85 84  150/ 17/ 21 1014.9F         5/ 6
BUOY 200 E PT IS 0550            84 85  130/ 14/ 16 1016.7S         3/ 5   2/ 7
BUOY 15 E GALVES 0550            85 86  170/ 14/ 14 1016.9F         2/ 5
$$




USA.gov is the U.S. government's official web portal to all federal, state and local government web resources and services.